DELTA 1 DEB, 13524

Orbit data source: Space-Track

DELTA 1 DEB, 13524 is space debris in SSO originally from a launch on Tue, 06 Nov 1973 UTC launched from the Air Force Western Test Range (AFWTR). Debris objects in space refer to the collection of defunct objects orbiting the Earth. Examples of debris include non-operational satellites, rocket bodies, and fragments generated from explosions, collisions, or faulty payload assembly.

Loading next visibility...
Identifier
13524, 1973-086GM
Orbit
SSO
Country
Flag of USUS
Related business
Manufacturer
Unknown
Mission
Spacecraft
Bus & Motor
Unknown
Mass
Unknown
Launch date (UTC)
1973-11-06 (52 years ago)
Launch vehicle
Unknown
Launch site
Air Force Western Test Range (AFWTR)
Object type
Payload
Rocket body
Debris
Shape & HBR
Unknown shape, 1.1 m
Radar Cross Section
Small (<0.1 m²)

Expand to show TLE details & history
Last TLE update: 2 days ago

TLE from 2 days ago
0 DELTA 1 DEB
1 13524U 73086GM  25298.46889243  .00000133  00000-0  12286-2 0  9997
2 13524 102.8638 285.4428 0043089 112.3635  42.1148 12.48320476 47449
Epoch: 2025-10-25T11:15Z
TLE epoch observation values (Epoch: 2025-10-25T11:15:12.305Z)
Latitude
24.54232°
Longitude
-91.50158°
Altitude
1,449.12 km
Speed
7.151 km/s
True Right ascension
07h 25m 35s
True Declination
24° 25' 27"
Sunlit
Object was in daylight at epoch
Visualization orbit readout
Latitude
Unknown
Longitude
Unknown
Altitude
Unknown
Speed
Unknown
Apparent Right ascension
Unknown
Apparent Declination
Unknown
Sunlit
N/A
Visualization observer readout
Local Sidereal Time
05:54:14
Azimuth
Unknown
Elevation
Unknown
Doppler factor
Unknown
Orbital elements
Apogee altitude
1,502.958 km
Perigee altitude
1,435.332 km
Semi-major axis
7,847.282 km
Eccentricity
0.00431
Inclination
102.8638°
RAAN
285.4428°
Arg. of periapsis
112.3635°
True anomaly
42.44725°
Mean anomaly
42.1148°
Eccentric anomaly
42.28089°
Mean motion
3.12223 °/min
Orbital period
115.3 mins
BSTAR
0.0012286
Loading maneuver chart data...
Computing Atmospheric mass density...
Loading historical data...
Loading historical data...
Loading historical data...
Loading historical data...
Loading historical data...
Loading historical data...
Loading historical data...

Documentation

Showing up to 5 results
|